This is the latest recevied weather packets stored in our database for station/object CW79215. If no packets are shown the sender has not sent any weather packets the latest 10 day(s).
| Time | Temp. | Humidity | Pressure | Rain* | Wind** | Luminosity | Snow |
|---|---|---|---|---|---|---|---|
| 1777638131 | 23.33° C | 27% | 1026.9 hPa | - | - | - | - |
| 1777637230 | 21.67° C | 29% | 1027.2 hPa | - | - | - | - |
| 1777636330 | 22.78° C | 27% | 1027.1 hPa | - | - | - | - |
| 1777635430 | 22.78° C | 25% | 1027.2 hPa | - | - | - | - |
| 1777634530 | 21.67° C | 26% | 1027.4 hPa | - | - | - | - |
| 1777633630 | 21.11° C | 28% | 1027.5 hPa | - | - | - | - |
| 1777632730 | 20.56° C | 27% | 1027.8 hPa | - | - | - | - |
| 1777631830 | 20.56° C | 27% | 1027.8 hPa | - | - | - | - |
| 1777630930 | 20.56° C | 26% | 1028 hPa | - | - | - | - |
| 1777630030 | 20° C | 27% | 1028.1 hPa | - | - | - | - |
| 1777629130 | 21.11° C | 25% | 1028.2 hPa | - | - | - | - |
| 1777628230 | 21.67° C | 25% | 1028.2 hPa | - | - | - | - |
| 1777627329 | 20.56° C | 26% | 1028.2 hPa | - | - | - | - |
| 1777626429 | 21.11° C | 24% | 1028.2 hPa | - | - | - | - |
| 1777625529 | 21.11° C | 24% | 1028.2 hPa | - | - | - | - |
| 1777624629 | 20° C | 24% | 1028.5 hPa | - | - | - | - |
| 1777623729 | 20.56° C | 24% | 1028.4 hPa | - | - | - | - |
| 1777622829 | 20.56° C | 24% | 1028.4 hPa | - | - | - | - |
| 1777621929 | 20° C | 23% | 1028.4 hPa | - | - | - | - |
| 1777621029 | 18.33° C | 24% | 1028.4 hPa | - | - | - | - |
| 1777620129 | 19.44° C | 23% | 1028.4 hPa | - | - | - | - |
| 1777619228 | 17.22° C | 25% | 1028.5 hPa | - | - | - | - |
| 1777618328 | 17.22° C | 25% | 1028.4 hPa | - | - | - | - |
| 1777617449 | 16.67° C | 27% | 1028.4 hPa | - | - | - | - |
| 1777616549 | 15° C | 29% | 1028.3 hPa | - | - | - | - |
* Rain since midnight (hover to see other rain measurements)
** Current wind speed in m/s (hover to see current wind gust speed)